This demonstration page uses our WeatherBlox Daily Observations layout. Learn more.

Left ArrowRight Arrow

Hourly Observations for December 18, 2020

Temp ( °F °C ) Dew Point ( °F °C ) Humidity (%) Winds ( mph kmh ) Pressure ( in mb ) Visibility ( mi km ) Precip ( " mm )
12:54 am 00:54 Clear 34 1.1 27 -2.8 76 76 S 13 20 30.01 1016 10 16.0934 0 0
1:54 am 01:54 Clear 35 1.7 28 -2.2 76 76 SSE 10 17 29.99 1016 10 16.0934 0 0
2:54 am 02:54 Clear 36 2.2 28 -2.2 73 73 S 15 24 29.97 1015 10 16.0934 0 0
3:54 am 03:54 Clear 37 2.8 28 -2.2 70 70 S 15 24 29.95 1014 10 16.0934 0 0
4:54 am 04:54 Clear 38 3.3 28 -2.2 68 68 SSE 20 31 29.91 1013 10 16.0934 0 0
5:54 am 05:54 Clear 39 3.9 29 -1.7 67 67 S 18 30 29.88 1012 10 16.0934 0 0
6:54 am 06:54 Clear 39 3.9 29 -1.7 67 67 S 17 28 29.88 1012 10 16.0934 0 0
7:54 am 07:54 Sunny 38 3.3 29 -1.7 70 70 S 16 26 29.87 1011 10 16.0934 0 0
8:54 am 08:54 Sunny 38 3.3 29 -1.7 70 70 SSE 13 20 29.86 1011 10 16.0934 0 0
9:54 am 09:54 Sunny 40 4.4 30 -1.1 68 68 S 14 22 29.88 1012 10 16.0934 0 0
10:54 am 10:54 Sunny 41 5 30 -1.1 65 65 S 15 24 29.87 1012 10 16.0934 0 0
11:54 am 11:54 Sunny 43 6.1 32 0 65 65 S 12 19 29.85 1011 10 16.0934 0 0
12:54 pm 12:54 Sunny 46 7.8 33 0.6 61 61 SSW 8 13 29.83 1010 10 16.0934 0 0
1:54 pm 13:54 Sunny 47 8.3 31 -0.6 54 54 WSW 12 19 29.84 1011 10 16.0934 0 0
2:54 pm 14:54 Sunny 47 8.3 31 -0.6 54 54 WNW 14 22 29.87 1012 10 16.0934 0 0
3:54 pm 15:54 Sunny 43 6.1 29 -1.7 58 58 NW 8 13 29.91 1013 10 16.0934 0 0
4:54 pm 16:54 Sunny 40 4.4 29 -1.7 65 65 W 5 7 29.95 1014 10 16.0934 0 0
5:54 pm 17:54 Clear 37 2.8 29 -1.7 73 73 WNW 3 6 29.98 1015 10 16.0934 0 0
6:54 pm 18:54 Clear 38 3.3 29 -1.7 70 70 NNW 14 22 30.01 1016 10 16.0934 0 0
7:54 pm 19:54 Clear 38 3.3 29 -1.7 70 70 NNW 10 17 30.05 1018 10 16.0934 0 0
8:54 pm 20:54 Clear 37 2.8 28 -2.2 70 70 NNW 16 26 30.08 1019 10 16.0934 0 0
9:54 pm 21:54 Clear 34 1.1 26 -3.3 73 73 NNW 15 24 30.11 1020 10 16.0934 0 0
10:54 pm 22:54 Clear 33 0.6 24 -4.4 70 70 NNW 18 30 30.13 1020 10 16.0934 0 0
11:54 pm 23:54 Clear 31 -0.6 20 -6.7 64 64 N 16 26 30.14 1021 10 16.0934 0 0

Powered by AerisWeather